Location: Allie Creek
(37.5926°N, 89.8526°W)
Time: 23:27:00
(UTC+00:00)

Meteor 2-10 - Pass Details

Date: 26 September 2023
Orbit: 738 x 867 km, 81.2° (Epoch: 11 December)

Event Time Altitude Azimuth Distance (km) Brightness Sun altitude
Rises 00:27:16 0° 175° (S) 3,424 7.3 -7.8°
Reaches altitude 10° 00:29:44 10° 171° (S) 2,498 6.5 -8.3°
Maximum altitude 00:35:16 56° 94° (E) 1,029 4.3 -9.4°
Drops below altitude 10° 00:40:50 10° 18° (NNE) 2,505 6.5 -10.5°
Sets 00:43:18 0° 14° (NNE) 3,436 7.3 -11.0°
